This demonstration page uses our WeatherBlox Daily Observations layout. Learn more.

Left ArrowRight Arrow

44.89941, -97.11507

Hourly Observations for January 8, 2021

Temp ( °F °C ) Dew Point ( °F °C ) Humidity (%) Winds ( mph kmh ) Pressure ( in mb ) Visibility ( mi km ) Precip ( " mm )
12:03 am 00:03 Cloudy with Mist and Fog 28 -2.2 28 -2.2 100 100 S 6 9 30.43 1030 1 1 0.00 0.00
12:53 am 00:53 Mostly Cloudy with Freezing Fog 28 -2.2 28 -2.2 100 100 SSE 7 11 30.40 1029 1 1 0.00 0.00
1:21 am 01:21 Mostly Cloudy with Freezing Fog 28 -2.2 28 -2.2 100 100 S 8 13 30.43 1030 0 0 0.00 0.00
1:53 am 01:53 Mostly Cloudy with Freezing Fog 28 -2.2 28 -2.2 100 100 SSE 7 11 30.39 1029 0 0 0.00 0.00
2:53 am 02:53 Mostly Cloudy with Freezing Fog 29 -1.7 29 -1.7 100 100 S 3 6 30.41 1030 0 0 0.00 0.00
3:53 am 03:53 Mostly Cloudy with Freezing Fog 29 -1.7 29 -1.7 100 100 SSE 3 6 30.42 1030 0 0 0.00 0.00
4:53 am 04:53 Mostly Cloudy with Freezing Fog 29 -1.7 29 -1.7 100 100 SSE 6 9 30.40 1030 0 0 0.00 0.00
5:53 am 05:53 Mostly Cloudy with Freezing Fog 28 -2.2 28 -2.2 100 100 ESE 6 9 30.40 1030 0 0 0.00 0.00
6:00 am 06:00 Mostly Cloudy with Freezing Fog 28 -2.2 28 -2.2 100 100 SE 6 9 30.43 1030 1 1 0.00 0.00
6:29 am 06:29 Mostly Cloudy with Freezing Fog 28 -2.2 28 -2.2 100 100 SE 6 9 30.43 1030 0 0 0.00 0.00
6:38 am 06:38 Cloudy with Freezing Fog 28 -2.2 28 -2.2 100 100 ESE 5 7 30.44 1031 1 1 0.00 0.00
6:53 am 06:53 Cloudy with Freezing Fog 28 -2.2 28 -2.2 100 100 SE 5 7 30.40 1030 1 1 0.00 0.00
7:53 am 07:53 Cloudy with Light Snow 28 -2.2 28 -2.2 100 100 SSE 6 9 30.41 1030 0 0 0.00 0.00
8:53 am 08:53 Mostly Cloudy with Freezing Fog 28 -2.2 28 -2.2 100 100 SSE 5 7 30.42 1030 0 0 0.00 0.00
9:04 am 09:04 Cloudy with Freezing Fog 28 -2.2 28 -2.2 100 100 S 5 7 30.46 1031 1 1 0.00 0.00
9:19 am 09:19 Cloudy with Freezing Fog 28 -2.2 28 -2.2 100 100 S 5 7 30.45 1031 0 0 0.00 0.00
9:43 am 09:43 Cloudy with Mist and Fog 28 -2.2 28 -2.2 100 100 S 3 6 30.45 1031 1 1 0.00 0.00
9:50 am 09:50 Cloudy with Mist and Fog 28 -2 28 -2 100 100 S 5 7 30.45 1031 1 2 0.00 0.00
9:53 am 09:53 Cloudy with Mist and Fog 28 -2.2 28 -2.2 100 100 S 3 6 30.42 1030 1 2 0.00 0.00
10:20 am 10:20 Cloudy with Freezing Fog 28 -2.2 28 -2.2 100 100 S 3 6 30.45 1031 1 1 0.00 0.00
10:32 am 10:32 Cloudy with Mist and Fog 28 -2.2 28 -2.2 100 100 Calm 30.45 1031 1 2 0.00 0.00
10:41 am 10:41 Cloudy with Mist and Fog 28 -2.2 28 -2.2 100 100 Calm 30.45 1031 2 2 0.00 0.00
10:53 am 10:53 Cloudy with Mist and Fog 28 -2.2 28 -2.2 100 100 Calm 30.42 1030 2 3 0.00 0.00
11:11 am 11:11 Cloudy with Mist and Fog 29 -1.7 28 -2.2 96 96 Calm 30.44 1031 3 4 0.00 0.00
11:37 am 11:37 Cloudy with Mist and Fog 30 -1.1 29 -1.7 96 96 Calm 30.44 1031 3 5 0.00 0.00
11:53 am 11:53 Cloudy with Mist and Fog 29 -1.7 29 -1.7 100 100 Calm 30.41 1030 3 5 0.00 0.00
12:04 pm 12:04 Cloudy with Mist and Fog 29 -1.7 29 -1.7 100 100 Calm 30.43 1031 3 4 0.00 0.00
12:26 pm 12:26 Cloudy with Mist and Fog 29 -1.7 29 -1.7 100 100 Calm 30.43 1031 3 4 0.00 0.00
12:53 pm 12:53 Cloudy with Mist and Fog 30 -1.1 29 -1.7 96 96 Calm 30.40 1029 3 4 0.00 0.00
1:06 pm 13:06 Cloudy with Mist and Fog 30 -1.1 29 -1.7 96 96 Calm 30.41 1030 3 5 0.00 0.00
1:53 pm 13:53 Cloudy with Mist and Fog 30 -1.1 29 -1.7 96 96 Calm 30.38 1029 5 8 0.00 0.00
2:53 pm 14:53 Cloudy with Mist and Fog 30 -1.1 29 -1.7 96 96 Calm 30.37 1028 4 6 0.00 0.00
3:53 pm 15:53 Cloudy with Mist and Fog 30 -1.1 29 -1.7 96 96 Calm 30.37 1028 5 8 0.00 0.00
4:53 pm 16:53 Cloudy with Mist and Fog 30 -1.1 29 -1.7 96 96 Calm 30.38 1029 5 8 0.00 0.00
5:53 pm 17:53 Cloudy with Mist and Fog 30 -1.1 29 -1.7 96 96 NNE 5 7 30.38 1029 6 10 0.00 0.00
6:53 pm 18:53 Cloudy with Mist and Fog 30 -1.1 29 -1.7 96 96 ENE 3 6 30.38 1029 5 8 0.00 0.00
7:44 pm 19:44 Cloudy with Mist and Fog 29 -1.7 29 -1.7 100 100 E 5 7 30.40 1030 2 3 0.00 0.00
7:53 pm 19:53 Cloudy with Mist and Fog 29 -1.7 29 -1.7 100 100 E 5 7 30.38 1029 2 2 0.00 0.00
8:01 pm 20:01 Cloudy with Mist and Fog 29 -1.7 29 -1.7 100 100 ENE 6 9 30.40 1030 1 2 0.00 0.00
8:09 pm 20:09 Cloudy with Mist and Fog 29 -1.7 29 -1.7 100 100 E 3 6 30.40 1030 1 1 0.00 0.00
8:39 pm 20:39 Cloudy with Mist and Fog 29 -1.7 29 -1.7 100 100 E 5 7 30.41 1030 1 2 0.00 0.00
8:53 pm 20:53 Cloudy with Freezing Fog 29 -1.7 29 -1.7 100 100 ENE 3 6 30.39 1029 1 1 0.00 0.00
9:27 pm 21:27 Mostly Cloudy with Freezing Fog 29 -1.7 29 -1.7 100 100 Calm 30.40 1030 0 0 0.00 0.00
9:53 pm 21:53 Mostly Cloudy with Freezing Fog 29 -1.7 28 -2.2 96 96 Calm 30.38 1029 0 0 0.00 0.00
10:13 pm 22:13 Mostly Cloudy with Freezing Fog 29 -1.7 28 -2.2 96 96 N 3 6 30.41 1030 1 1 0.00 0.00
10:27 pm 22:27 Cloudy with Mist and Fog 28 -2.2 28 -2.2 100 100 NNE 3 6 30.42 1030 2 2 0.00 0.00
10:35 pm 22:35 Cloudy with Mist and Fog 28 -2.2 28 -2.2 100 100 NE 3 6 30.42 1030 3 4 0.00 0.00
10:53 pm 22:53 Cloudy with Mist and Fog 28 -2.2 28 -2.2 100 100 NNE 3 6 30.40 1029 3 4 0.00 0.00
11:05 pm 23:05 Cloudy with Mist and Fog 28 -2.2 28 -2.2 100 100 NE 3 6 30.42 1030 3 5 0.00 0.00
11:53 pm 23:53 Cloudy with Mist and Fog 28 -2.2 27 -2.8 96 96 NE 3 6 30.38 1029 3 5 0.00 0.00

Powered by AerisWeather